Location: Grums
(59.3529°N, 13.1129°E)
Time: 04:00:06
(UTC+02:00)

Nauka - Pass Details

Date: 28 September 2021
Orbit: 417 x 423 km, 51.6° (Epoch: 16 October)

Event Time Altitude Azimuth Distance (km) Brightness Sun altitude
Rises 20:59:13 0° 262° (W) 2,367 ? -17.0°
Reaches altitude 10° 21:01:55 10° 239° (WSW) 1,502 ? -17.3°
Maximum altitude 21:03:57 15° 202° (SSW) 1,223 ? -17.5°
Enters shadow 21:04:26 15° 191° (SSW) 1,240 ? -17.6°
